Regional Weather Roundup
Issued by NWS

Home | Current Version | Previous Version | Text Only | Print | Product List | Glossary On
Versions: 1 2 3 4 5 6 7 8 9 10 11 12 13 14 15 16 17 18 19 20 21 22 23 24 25 26 27 28 29 30 31 32 33 34 35 36 37 38 39 40 41 42 43 44 45 46 47 48 49 50
000
ASUS43 KTOP 012108
RWRKS

WEATHER ROUNDUP FOR KANSAS
NATIONAL WEATHER SERVICE GOODLAND KS
400 PM CDT MON SEP 01 2014

NOTE:  "FAIR" INDICATES FEW OR NO CLOUDS BELOW 12,000 FEET WITH NO
SIGNIFICANT WEATHER AND/OR OBSTRUCTIONS TO VISIBILITY.

KSZ001>006-013>018-027>032-041>047-012200-
NORTHWEST KANSAS

CITY           SKY/WX    TMP DP  RH WIND       PRES   REMARKS
GOODLAND       SUNNY     80  47  31 VRB3      29.97F
HAYS           PTSUNNY   79  61  53 N6        29.91F
HILL CITY      SUNNY     81  53  37 N7        29.93F
RUSSELL        PTSUNNY   79  63  57 E8        29.89F
$$

KSZ061>065-074>080-084>089-012200-
SOUTHWEST KANSAS

CITY           SKY/WX    TMP DP  RH WIND       PRES   REMARKS
DODGE CITY     MOSUNNY   79  63  57 NE12      29.91F
ELKHART          N/A     85  57  38 E3          N/A
GARDEN CITY    SUNNY     83  58  42 E15       29.91F
GREAT BEND     CLOUDY    75  64  69 NE8       29.90F
LIBERAL        SUNNY     84  63  48 E10       29.91F
PRATT          MOSUNNY   81  63  54 NE14      29.87F
$$

KSZ066>073-081>083-090>101-012200-
SOUTHEAST KANSAS

CITY           SKY/WX    TMP DP  RH WIND       PRES   REMARKS
CHANUTE        CLOUDY    84  70  62 S10       29.86F
COFFEYVILLE    CLOUDY    85  72  65 NE3       29.83F
HUTCHINSON     CLOUDY    81  66  60 NE8       29.86F
MEDICINE LODGE   N/A     90  70  51 NE7       29.78F HX  95
NEWTON         PTSUNNY   79  64  61 NE9       29.90F
PARSONS        CLOUDY    84  71  65 S7        29.86F
WICHITA INTL   PTSUNNY   86  69  56 E10       29.82F
WICHITA JABRA  MOSUNNY   85  70  60 SE6       29.83F
WICHITA MCCONL MOSUNNY   86  71  59 NE8       29.83F
WINFIELD       PTSUNNY   90  71  53 S12       29.82F HX  96
$$

KSZ007>012-019>026-033>040-048>060-102>105-012200-
NORTHEAST KANSAS

CITY           SKY/WX    TMP DP  RH WIND       PRES   REMARKS
CONCORDIA      MOSUNNY   80  63  55 VRB6      29.89F
EMPORIA        CLOUDY    75  67  76 E5        29.89S
LAWRENCE       CLOUDY   N/A N/A N/A SW6       29.88F
MANHATTAN      CLOUDY    78  66  66 S5        29.88F
OLATHE IND     CLOUDY    78  67  68 S9        29.90F
OLATHE EXE     CLOUDY    77  66  68 SW8       29.89F
SALINA         CLOUDY    78  65  63 E6        29.89F
TOPEKA BILLARD CLOUDY    80  67  64 CALM      29.88F
TOPEKA FORBES  CLOUDY    79  66  64 CALM      29.88F
$$



USA.gov is the U.S. government's official web portal to all federal, state and local government web resources and services.